Weather in Saulkrasti

Latvia     57°15′24″N   24°25′03″E
temp.,
°C
wind,
m/s
gust,
m/s
humid.,
%
clouds,
%
prec.,
mm/h
press.,
hPa
HPBL,
m
20 june, sun
sun2000:00+19sse36840 0.0 1017104
03:00+18sse38882 0.0 1018153
06:00+19sse49825 0.0 1017223
09:00+24s466552 0.0 1017398
12:00+28ssw464816 0.0 10171495
15:00+30ssw46421 0.0 10162139
18:00+29ssw46435 0.0 10151760
21:00+25s24720 0.0 101586
21 june, mon
mon2100:00+21se34880 0.3 101576
03:00+19se389610 2.5 1015162
06:00+20sse410955 0.0 1014224
09:00+25sse47685 0.0 1014496
12:00+29s474910 0.0 10141530
15:00+31s473914 0.0 10131858
18:00+31s36415 0.0 10121724
21:00+26ese25685 0.0 1012104
22 june, tue
tue2200:00+22se39822 0.0 1013185
03:00+20se310790 0.0 1012212
06:00+20se39864 0.0 1012207
09:00+25sse476886 0.0 1012594
12:00+28sse5756100 0.2 10111141
15:00+28s575398 0.2 10121494
18:00+27s5758100 0.1 10121208
21:00+24s36755 0.1 1012272
23 june, wed
wed2300:00+21s24915 0.0 101466
03:00+19ssw11975 0.0 101415
06:00+19ssw119610 0.0 101560
09:00+24sw127528 0.0 1016465
12:00+25wnw326731 0.5 1016511
15:00+20nw3490100 2.8 1018175
18:00+19nw2393100 3.9 1018129
21:00+18nnw259678 6.3 1018127
24 june, thu
thu2400:00+18nnw2296100 0.4 101831
03:00+17nne369778 0.4 1017132
06:00+18nnw1299100 4.0 101771
09:00+19nw229689 6.1 1017261
12:00+20nw338261 0.0 1018411
15:00+22nw327133 0.0 1017439
18:00+20nw34745 0.0 1017247
21:00+18nnw2582100 0.0 1016116